When you browse on this site, cookies collect data to enhance your experience and personalize the content and advertising you see.
Visit our Privacy Policy to learn more. By continuing to use the site, you agree to this use of cookies and data.
  • In Österreich
  • Länderverzeichnis
  • Für 7 Tage
  • Wassertemperatur
  • Satellitenkarten
  • Wetterkarte
  • News
  • Widgets
  • user-avatar
    Anmelden

    Stündliche Wetter La Rioja

    Heute, 21 Januar, Montag

    Zeit Temperatur Niederschläge Wind Luftdruck Luftfeuchtigkeit
    00:00 +27°C° 0 mm 2 m/S 713 mmHg 64%
    01:00 +26°C° 0 mm 2 m/S 712 mmHg 66%
    02:00 +26°C° 0 mm 2 m/S 712 mmHg 69%
    03:00 +25°C° 0 mm 2 m/S 712 mmHg 71%
    04:00 +25°C° 0 mm 2 m/S 712 mmHg 74%
    05:00 +24°C° 0 mm 1 m/S 712 mmHg 76%
    06:00 +25°C° 0 mm 2 m/S 713 mmHg 73%
    07:00 +25°C° 0 mm 2 m/S 713 mmHg 71%
    08:00 +26°C° 0 mm 2 m/S 714 mmHg 69%
    09:00 +28°C° 0 mm 3 m/S 714 mmHg 63%
    10:00 +29°C° 0 mm 3 m/S 714 mmHg 57%
    11:00 +31°C° 0 mm 3 m/S 714 mmHg 50%
    12:00 +33°C° 0 mm 3 m/S 713 mmHg 47%
    13:00 +34°C° 0 mm 3 m/S 713 mmHg 44%
    14:00 +35°C° 0 mm 3 m/S 712 mmHg 40%
    15:00 +36°C° 0 mm 3 m/S 712 mmHg 39%
    16:00 +36°C° 0 mm 3 m/S 711 mmHg 38%
    17:00 +36°C° 0 mm 3 m/S 711 mmHg 36%
    18:00 +35°C° 0 mm 2 m/S 711 mmHg 39%
    19:00 +33°C° 0 mm 1 m/S 711 mmHg 41%
    20:00 +32°C° 0 mm 1 m/S 712 mmHg 44%
    21:00 +31°C° 0 mm 1 m/S 712 mmHg 46%
    22:00 +31°C° 0 mm 1 m/S 712 mmHg 49%
    23:00 +30°C° 0 mm 1 m/S 713 mmHg 51%

    Morgen, 22 Januar, Dienstag

    Zeit Temperatur Niederschläge Wind Luftdruck Luftfeuchtigkeit
    00:00 +30°C° 0 mm 1 m/S 713 mmHg 53%
    01:00 +29°C° 0 mm 1 m/S 712 mmHg 55%
    02:00 +29°C° 0 mm 1 m/S 712 mmHg 57%
    03:00 +28°C° 0 mm 1 m/S 712 mmHg 60%
    04:00 +26°C° 0 mm 0 m/S 711 mmHg 63%
    05:00 +25°C° 0 mm 0 m/S 711 mmHg 65%
    06:00 +28°C° 0 mm 1 m/S 712 mmHg 62%
    07:00 +29°C° 0 mm 1 m/S 712 mmHg 58%
    08:00 +30°C° 0 mm 2 m/S 712 mmHg 55%
    09:00 +32°C° 0 mm 2 m/S 712 mmHg 51%
    10:00 +34°C° 0 mm 2 m/S 712 mmHg 47%
    11:00 +36°C° 0 mm 3 m/S 712 mmHg 43%
    12:00 +37°C° 0 mm 3 m/S 711 mmHg 40%
    13:00 +38°C° 0 mm 3 m/S 711 mmHg 37%
    14:00 +39°C° 0 mm 3 m/S 710 mmHg 35%
    15:00 +39°C° 0 mm 3 m/S 710 mmHg 34%
    16:00 +39°C° 0 mm 3 m/S 710 mmHg 33%
    17:00 +40°C° 0 mm 3 m/S 709 mmHg 32%
    18:00 +39°C° 0 mm 2 m/S 710 mmHg 34%
    19:00 +38°C° 0 mm 2 m/S 710 mmHg 36%
    20:00 +37°C° 0 mm 2 m/S 711 mmHg 39%
    21:00 +36°C° 0.2 mm 2 m/S 712 mmHg 41%
    22:00 +34°C° 0.2 mm 1 m/S 712 mmHg 44%
    23:00 +33°C° 0.2 mm 1 m/S 713 mmHg 47%

    übermorgen, 23 Januar, Mittwoch

    Zeit Temperatur Niederschläge Wind Luftdruck Luftfeuchtigkeit
    00:00 +32°C° 0.1 mm 2 m/S 713 mmHg 48%
    01:00 +32°C° 0.1 mm 2 m/S 713 mmHg 48%
    02:00 +32°C° 0.1 mm 2 m/S 713 mmHg 48%
    03:00 +31°C° 0 mm 2 m/S 712 mmHg 48%
    04:00 +31°C° 0 mm 2 m/S 712 mmHg 48%
    05:00 +31°C° 0 mm 2 m/S 712 mmHg 47%
    06:00 +32°C° 0 mm 2 m/S 713 mmHg 45%
    07:00 +34°C° 0 mm 2 m/S 714 mmHg 42%
    08:00 +35°C° 0 mm 2 m/S 714 mmHg 39%
    09:00 +36°C° 0 mm 3 m/S 714 mmHg 38%
    10:00 +37°C° 0 mm 3 m/S 714 mmHg 36%
    11:00 +39°C° 0 mm 3 m/S 714 mmHg 34%
    12:00 +39°C° 0 mm 3 m/S 713 mmHg 33%
    13:00 +40°C° 0 mm 3 m/S 713 mmHg 33%
    14:00 +42°C° 0 mm 4 m/S 712 mmHg 32%
    15:00 +42°C° 0 mm 3 m/S 711 mmHg 31%
    16:00 +42°C° 0 mm 3 m/S 711 mmHg 31%
    17:00 +42°C° 0 mm 3 m/S 711 mmHg 31%
    18:00 +40°C° 0.5 mm 3 m/S 711 mmHg 34%
    19:00 +39°C° 0.5 mm 3 m/S 712 mmHg 37%
    20:00 +38°C° 0.5 mm 3 m/S 712 mmHg 40%
    21:00 +36°C° 0.4 mm 3 m/S 713 mmHg 46%
    22:00 +35°C° 0.4 mm 4 m/S 713 mmHg 52%
    23:00 +33°C° 0.4 mm 4 m/S 714 mmHg 59%

    24 Januar, Donnerstag

    Zeit Temperatur Niederschläge Wind Luftdruck Luftfeuchtigkeit
    00:00 +33°C° 0.3 mm 3 m/S 713 mmHg 62%
    01:00 +31°C° 0.3 mm 2 m/S 713 mmHg 64%
    02:00 +30°C° 0.3 mm 1 m/S 713 mmHg 67%
    03:00 +30°C° 0.1 mm 2 m/S 712 mmHg 69%
    04:00 +30°C° 0.1 mm 2 m/S 712 mmHg 71%
    05:00 +29°C° 0.1 mm 2 m/S 712 mmHg 72%
    06:00 +30°C° 0 mm 2 m/S 712 mmHg 71%
    07:00 +30°C° 0 mm 1 m/S 712 mmHg 71%
    08:00 +30°C° 0 mm 1 m/S 712 mmHg 70%
    09:00 +32°C° 0 mm 2 m/S 712 mmHg 64%
    10:00 +34°C° 0 mm 2 m/S 712 mmHg 58%
    11:00 +36°C° 0 mm 2 m/S 712 mmHg 52%
    12:00 +37°C° 0 mm 3 m/S 711 mmHg 47%
    13:00 +38°C° 0 mm 3 m/S 710 mmHg 43%
    14:00 +41°C° 0 mm 4 m/S 709 mmHg 39%
    15:00 +41°C° 0 mm 5 m/S 708 mmHg 36%
    16:00 +41°C° 0 mm 5 m/S 708 mmHg 34%
    17:00 +42°C° 0 mm 5 m/S 707 mmHg 32%
    18:00 +41°C° 0 mm 5 m/S 708 mmHg 35%
    19:00 +38°C° 0 mm 4 m/S 708 mmHg 38%
    20:00 +37°C° 0 mm 3 m/S 709 mmHg 41%
    21:00 +36°C° 0 mm 2 m/S 709 mmHg 43%
    22:00 +36°C° 0 mm 2 m/S 709 mmHg 45%
    23:00 +34°C° 0 mm 1 m/S 710 mmHg 47%

    25 Januar, Freitag

    Zeit Temperatur Niederschläge Wind Luftdruck Luftfeuchtigkeit
    00:00 +33°C° 0 mm 1 m/S 709 mmHg 47%
    01:00 +33°C° 0 mm 1 m/S 709 mmHg 47%
    02:00 +33°C° 0 mm 1 m/S 708 mmHg 47%
    03:00 +32°C° 0 mm 1 m/S 708 mmHg 48%
    04:00 +32°C° 0 mm 1 m/S 708 mmHg 48%
    05:00 +31°C° 0 mm 1 m/S 707 mmHg 49%
    06:00 +32°C° 0 mm 1 m/S 708 mmHg 45%
    07:00 +34°C° 0 mm 1 m/S 709 mmHg 40%
    08:00 +35°C° 0 mm 1 m/S 709 mmHg 35%
    09:00 +37°C° 0.4 mm 2 m/S 710 mmHg 34%
    10:00 +38°C° 0.4 mm 3 m/S 710 mmHg 33%
    11:00 +39°C° 0.4 mm 3 m/S 710 mmHg 31%
    12:00 +41°C° 0.1 mm 4 m/S 710 mmHg 30%
    13:00 +42°C° 0.1 mm 4 m/S 710 mmHg 30%
    14:00 +43°C° 0.1 mm 5 m/S 710 mmHg 29%
    15:00 +42°C° 0.9 mm 5 m/S 710 mmHg 33%
    16:00 +41°C° 0.9 mm 6 m/S 710 mmHg 38%
    17:00 +40°C° 0.9 mm 6 m/S 710 mmHg 43%
    18:00 +38°C° 2.9 mm 6 m/S 710 mmHg 48%
    19:00 +36°C° 2.9 mm 6 m/S 711 mmHg 53%
    20:00 +34°C° 2.9 mm 6 m/S 711 mmHg 58%
    21:00 +33°C° 2.1 mm 6 m/S 712 mmHg 57%
    22:00 +33°C° 2.1 mm 6 m/S 713 mmHg 57%
    23:00 +32°C° 2.1 mm 5 m/S 713 mmHg 57%

    26 Januar, Samstag

    Zeit Temperatur Niederschläge Wind Luftdruck Luftfeuchtigkeit
    00:00 +32°C° 2.7 mm 4 m/S 713 mmHg 60%
    01:00 +30°C° 2.7 mm 3 m/S 713 mmHg 63%
    02:00 +29°C° 2.7 mm 3 m/S 713 mmHg 66%
    03:00 +29°C° 1.8 mm 2 m/S 714 mmHg 69%
    04:00 +28°C° 1.8 mm 2 m/S 714 mmHg 72%
    05:00 +28°C° 1.8 mm 2 m/S 714 mmHg 75%
    06:00 +29°C° 0.8 mm 2 m/S 714 mmHg 71%
    07:00 +29°C° 0.8 mm 2 m/S 714 mmHg 67%
    08:00 +30°C° 0.8 mm 2 m/S 715 mmHg 63%
    09:00 +31°C° 0.2 mm 3 m/S 715 mmHg 58%
    10:00 +33°C° 0.2 mm 3 m/S 714 mmHg 54%
    11:00 +34°C° 0.2 mm 3 m/S 714 mmHg 50%
    12:00 +35°C° 0.2 mm 3 m/S 714 mmHg 50%
    13:00 +35°C° 0.2 mm 3 m/S 713 mmHg 50%
    14:00 +35°C° 0.2 mm 3 m/S 713 mmHg 49%
    15:00 +35°C° 0.2 mm 3 m/S 712 mmHg 50%
    16:00 +35°C° 0.2 mm 3 m/S 712 mmHg 50%
    17:00 +36°C° 0.2 mm 3 m/S 712 mmHg 51%
    18:00 +34°C° 1 mm 3 m/S 712 mmHg 56%
    19:00 +33°C° 1 mm 3 m/S 713 mmHg 62%
    20:00 +31°C° 1 mm 3 m/S 713 mmHg 68%
    21:00 +30°C° 0.2 mm 3 m/S 714 mmHg 72%
    22:00 +30°C° 0.2 mm 2 m/S 714 mmHg 76%
    23:00 +29°C° 0.2 mm 2 m/S 715 mmHg 80%
    Mehr zeigen